Location: Çayiçi
(36.4667°N, 30.2333°E)
Time: 02:43:34
(UTC+00:00)

Atlas Centaur 2 - Pass Details

Date: 09 February 2023
Orbit: 459 x 1295 km, 30.4° (Epoch: 01 April)

Event Time Altitude Azimuth Distance (km) Brightness Sun altitude
Rises 17:35:55 0° 269° (W) 3,922 7.1 -25.1°
Reaches altitude 10° 17:38:41 10° 263° (W) 3,061 6.1 -25.7°
Maximum altitude 17:46:05 47° 193° (SSW) 1,622 3.6 -27.2°
Enters shadow 17:48:52 36° 149° (SSE) 1,925 3.7 -27.7°
